Location: Denia
(38.8500°N, 0.1170°E)
Time: 21:39:58
(UTC+01:00)

Envisat - Pass Details

Date: 28 January 2020
Orbit: 764 x 766 km, 98.1° (Epoch: 19 February)

Event Time Altitude Azimuth Distance (km) Brightness Sun altitude
Rises 07:01:42 0° 22° (NNE) 3,238 6.4 -13.4°
Reaches altitude 10° 07:04:11 10° 30° (NNE) 2,307 5.7 -12.9°
Maximum altitude 07:08:51 36° 97° (E) 1,191 4.7 -12.0°
Drops below altitude 10° 07:13:30 10° 164° (SSE) 2,292 5.9 -11.2°
Sets 07:15:57 0° 173° (S) 3,213 6.5 -10.7°
